sat.trackr.live / text

‹ back to catalog

STARLINK-11233 [DTC]

NORAD 61061 · 2024-164M

PAYLOAD ACTIVE UNKNOWN

§ Identity

Operator
Country
US
Launch date
2024-09-13
Launch site
AFWTR
Launch vehicle
Mass (kg)
RCS (m²)

Purposes: comms

External: N2YO · Heavens-Above · Gunter

§ Orbital elements

Epoch: 2026-09-21T16:55:54.424128Z

Period
91.74 min
Inclination
53.1587°
Eccentricity
0.0000782
Mean motion
15.69705616 rev/d
Perigee alt
359.2 km
Apogee alt
360.3 km
Semi-major
6,737.9 km
B*
2.2865e-6
RAAN
65.1058°
Arg perigee
76.8585°
Mean anomaly
283.2521°
Rev number
11,620

§ Raw data

STARLINK-11233 [DTC]1 61061U 24164M   26264.70549102 -.00000311  00000+0  22865-5 0  99922 61061  53.1587  65.1058 0000782  76.8585 283.2521 15.69705616116205

JSON: /api/v1/satellites/61061 · /tle

For live sub-satellite position, see the globe view (requires WebGL).

§ Visibility from observer

Set your observer location to see the next 7 days of passes ≥ 10°. The values pass through the URL so the page stays shareable.

No JS? Fill the form by hand. The geolocation button needs JavaScript.